Location: Ergnies
(50.0854°N, 2.0375°E)
Time: 06:12:02
(UTC+00:00)

YAOGAN 1 - Pass Details

Date: 14 January 2026
Orbit: 605 x 607 km, 97.8° (Epoch: 10 February)

Event Time Altitude Azimuth Distance (km) Brightness Sun altitude
Rises 06:54:12 0° 18° (NNE) 2,876 5.9 -8.1°
Reaches altitude 10° 06:56:28 10° 24° (NNE) 1,966 5.2 -7.7°
Maximum altitude 07:00:35 47° 99° (E) 808 3.8 -7.1°
Drops below altitude 10° 07:04:41 10° 174° (S) 1,949 5.6 -6.6°
Sets 07:06:55 0° 180° (S) 2,848 6.3 -6.2°
